SP6VXP-13 Weather Reports


time (UTC)temp
F
wind
direction
speed
knots
gust
knots
rain 1hr
in
rain 24hr
in
rain mn
in
humidity
%
barometer
mb
20260905100407 73 0.0 0.0 0.00 0.00 0.00 40 969.2
20260905095407 73 0.0 0.0 0.00 0.00 0.00 40 969.4
20260905094407 73 0.0 0.0 0.00 0.00 0.00 41 969.3
20260905093407 73 0.0 0.0 0.00 0.00 0.00 42 969.4
20260905092407 73 0.0 0.0 0.00 0.00 0.00 42 969.4
20260905091407 73 0.0 0.0 0.00 0.00 0.00 42 969.4
20260905090407 76 0.0 0.0 0.00 0.00 0.00 41 969.4
20260905085407 75 0.0 0.0 0.00 0.00 0.00 41 969.3
20260905084407 76 0.0 0.0 0.00 0.00 0.00 41 969.2
20260905083407 76 0.0 0.0 0.00 0.00 0.00 42 969.2
20260905082408 75 0.0 0.0 0.00 0.00 0.00 42 969.2
20260905080300 75 0.0 0.0 0.00 0.00 0.00 41 969.0
20260905075300 75 0.0 0.0 0.00 0.00 0.00 42 968.9
20260905074259 76 0.0 0.0 0.00 0.00 0.00 42 968.8
20260905073300 77 0.0 0.0 0.00 0.00 0.00 41 968.9
20260905072259 75 0.0 0.0 0.00 0.00 0.00 44 968.9
20260905070234 76 0.0 0.0 0.00 0.00 0.00 46 968.7
20260905065234 76 0.0 0.0 0.00 0.00 0.00 45 968.6
20260905063333 76 0.0 0.0 0.00 0.00 0.00 45 968.5
20260905062228 76 0.0 0.0 0.00 0.00 0.00 44 968.4
20260905061228 76 0.0 0.0 0.00 0.00 0.00 46 968.3
20260905060228 75 0.0 0.0 0.00 0.00 0.00 45 968.2
20260905055228 75 0.0 0.0 0.00 0.00 0.00 45 968.1
20260905054228 75 0.0 0.0 0.00 0.00 0.00 47 967.8
20260905053228 75 0.0 0.0 0.00 0.00 0.00 47 967.7
20260905052228 75 0.0 0.0 0.00 0.00 0.00 47 967.6
20260905051228 75 0.0 0.0 0.00 0.00 0.00 49 967.4
20260905050228 75 0.0 0.0 0.00 0.00 0.00 48 967.3
20260905045228 75 0.0 0.0 0.00 0.00 0.00 47 967.2
20260905044228 75 0.0 0.0 0.00 0.00 0.00 48 967.2
20260905043228 76 0.0 0.0 0.00 0.00 0.00 48 967.2
20260905042228 75 0.0 0.0 0.00 0.00 0.00 48 966.9
20260905041228 75 0.0 0.0 0.00 0.00 0.00 48 966.9
20260905040228 75 0.0 0.0 0.00 0.00 0.00 48 966.8
20260905035227 76 0.0 0.0 0.00 0.00 0.00 48 966.6
20260905034228 76 0.0 0.0 0.00 0.00 0.00 47 966.6
20260905033228 76 0.0 0.0 0.00 0.00 0.00 48 966.6
20260905032228 76 0.0 0.0 0.00 0.00 0.00 48 966.4
20260905031228 76 0.0 0.0 0.00 0.00 0.00 48 966.6
20260905030228 76 0.0 0.0 0.00 0.00 0.00 48 966.4
20260905025228 76 0.0 0.0 0.00 0.00 0.00 48 966.1
20260905024228 76 0.0 0.0 0.00 0.00 0.00 47 965.8
20260905023227 76 0.0 0.0 0.00 0.00 0.00 47 965.7
20260905022227 76 0.0 0.0 0.00 0.00 0.00 48 965.4
20260905021227 76 0.0 0.0 0.00 0.00 0.00 49 965.5
20260905020228 76 0.0 0.0 0.00 0.00 0.00 49 964.9
20260905015228 76 0.0 0.0 0.00 0.00 0.00 48 965.2
20260905014228 76 0.0 0.0 0.00 0.00 0.00 49 964.8
20260905013228 76 0.0 0.0 0.00 0.00 0.00 49 965.2
20260905012228 76 0.0 0.0 0.00 0.00 0.00 49 965.4
20260905011228 76 0.0 0.0 0.00 0.00 0.00 49 965.2
20260905010228 76 0.0 0.0 0.00 0.00 0.00 49 965.2
20260905005228 76 0.0 0.0 0.00 0.00 0.00 50 965.1
20260905004228 76 0.0 0.0 0.00 0.00 0.00 50 965.3
20260905003228 76 0.0 0.0 0.00 0.00 0.00 50 965.6
20260905002228 77 0.0 0.0 0.00 0.00 0.00 49 965.4
20260905001228 76 0.0 0.0 0.00 0.00 0.00 50 965.6
20260905000228 76 0.0 0.0 0.00 0.00 0.00 49 965.2
20260904235228 76 0.0 0.0 0.00 0.00 0.00 50 965.2
20260904234228 77 0.0 0.0 0.00 0.00 0.00 50 964.9
20260904233228 76 0.0 0.0 0.00 0.00 0.00 50 964.6
20260904232228 76 0.0 0.0 0.00 0.00 0.00 51 964.5
20260904231228 76 0.0 0.0 0.00 0.00 0.00 50 964.5
20260904230228 76 0.0 0.0 0.00 0.00 0.00 50 964.6
20260904225228 76 0.0 0.0 0.00 0.00 0.00 50 964.2
20260904224228 76 0.0 0.0 0.00 0.00 0.00 49 964.2
20260904223228 76 0.0 0.0 0.00 0.00 0.00 49 964.3
20260904222228 76 0.0 0.0 0.00 0.00 0.00 49 964.4
20260904221228 77 0.0 0.0 0.00 0.00 0.00 49 964.1
20260904220228 77 0.0 0.0 0.00 0.00 0.00 48 964.2
20260904215228 77 0.0 0.0 0.00 0.00 0.00 49 964.2
20260904214228 77 0.0 0.0 0.00 0.00 0.00 48 964.1
20260904213228 76 0.0 0.0 0.00 0.00 0.00 49 964.1
20260904212228 77 0.0 0.0 0.00 0.00 0.00 48 964.0
20260904211228 76 0.0 0.0 0.00 0.00 0.00 49 964.2
20260904210228 76 0.0 0.0 0.00 0.00 0.00 50 963.9
20260904205228 77 0.0 0.0 0.00 0.00 0.00 48 964.1
20260904204228 77 0.0 0.0 0.00 0.00 0.00 49 964.2
20260904203228 77 0.0 0.0 0.00 0.00 0.00 49 964.3
20260904202228 76 0.0 0.0 0.00 0.00 0.00 49 964.4
20260904201228 76 0.0 0.0 0.00 0.00 0.00 48 964.4
20260904200227 76 0.0 0.0 0.00 0.00 0.00 49 964.3
20260904195228 76 0.0 0.0 0.00 0.00 0.00 48 964.0
20260904194228 77 0.0 0.0 0.00 0.00 0.00 46 963.8
20260904192617 78 0.0 0.0 0.00 0.00 0.00 47 964.0
20260904190814 78 0.0 0.0 0.00 0.00 0.00 51 963.4
20260904185814 78 0.0 0.0 0.00 0.00 0.00 50 963.1
20260904184814 77 0.0 0.0 0.00 0.00 0.00 51 963.2
20260904183642 76 0.0 0.0 0.00 0.00 0.00 52 962.9
20260904182642 77 0.0 0.0 0.00 0.00 0.00 52 961.4
20260904181642 78 0.0 0.0 0.00 0.00 0.00 50 961.3
20260904180642 77 0.0 0.0 0.00 0.00 0.00 51 961.3
20260904175642 77 0.0 0.0 0.00 0.00 0.00 50 960.9
20260904174642 77 0.0 0.0 0.00 0.00 0.00 50 960.7
20260904173643 75 0.0 0.0 0.00 0.00 0.00 52 960.6
20260904172642 75 0.0 0.0 0.00 0.00 0.00 52 961.0
20260904171642 75 0.0 0.0 0.00 0.00 0.00 53 961.3
20260904170642 75 0.0 0.0 0.00 0.00 0.00 53 961.4
20260904165642 76 0.0 0.0 0.00 0.00 0.00 52 961.4
20260904164642 78 0.0 0.0 0.00 0.00 0.00 50 961.4
20260904152539 77 0.0 0.0 0.00 0.00 0.00 50 961.9
20260904151539 77 0.0 0.0 0.00 0.00 0.00 50 962.0
20260904150539 77 0.0 0.0 0.00 0.00 0.00 51 961.8
20260904145539 77 0.0 0.0 0.00 0.00 0.00 51 961.9
20260904144539 76 0.0 0.0 0.00 0.00 0.00 52 962.0
20260904143539 75 0.0 0.0 0.00 0.00 0.00 53 962.4
20260904142539 75 0.0 0.0 0.00 0.00 0.00 53 962.6
20260904141539 75 0.0 0.0 0.00 0.00 0.00 52 962.7
20260904140539 75 0.0 0.0 0.00 0.00 0.00 52 962.9
20260904135539 76 0.0 0.0 0.00 0.00 0.00 51 963.0
20260904134539 76 0.0 0.0 0.00 0.00 0.00 52 963.2
20260904133539 76 0.0 0.0 0.00 0.00 0.00 51 963.4
20260904132539 76 0.0 0.0 0.00 0.00 0.00 52 963.5
20260904131539 76 0.0 0.0 0.00 0.00 0.00 51 963.6
20260904130539 75 0.0 0.0 0.00 0.00 0.00 51 963.6
20260904125539 75 0.0 0.0 0.00 0.00 0.00 51 963.8
20260904124539 76 0.0 0.0 0.00 0.00 0.00 51 963.8
20260904123539 75 0.0 0.0 0.00 0.00 0.00 51 963.9
20260904122539 75 0.0 0.0 0.00 0.00 0.00 51 964.0
20260904121539 75 0.0 0.0 0.00 0.00 0.00 51 964.2
20260904120539 76 0.0 0.0 0.00 0.00 0.00 49 964.3
20260904115539 77 0.0 0.0 0.00 0.00 0.00 49 964.2
20260904114539 74 0.0 0.0 0.00 0.00 0.00 53 964.3
20260904113539 74 0.0 0.0 0.00 0.00 0.00 53 964.7
20260904112539 74 0.0 0.0 0.00 0.00 0.00 53 964.7
20260904111539 74 0.0 0.0 0.00 0.00 0.00 52 964.8
20260904110539 74 0.0 0.0 0.00 0.00 0.00 50 965.0
20260904105539 74 0.0 0.0 0.00 0.00 0.00 50 965.0
20260904104539 74 0.0 0.0 0.00 0.00 0.00 50 965.1
20260904103539 74 0.0 0.0 0.00 0.00 0.00 51 965.2
20260904102539 74 0.0 0.0 0.00 0.00 0.00 51 965.4
20260904101539 74 0.0 0.0 0.00 0.00 0.00 51 965.6